Showing default

CONNECTA T2.1, 56210

Orbit data source: Space-Track

CONNECTA T2.1, 56210 is a payload satellite owned by Plan-S (TR) in SSO that was launched on Sat, 15 Apr 2023 UTC via an FALCON 9 launch vehicle from the Air Force Western Test Range (AFWTR). Payload-class satellites include a variety of spacecraft equipped with specific instruments for various scientific and technological missions. These include communications satellites like Starlink; space stations such as the ISS; scientific satellites like the Hubble; Earth observation satellites from companies like Planet Labs, Umbra, and HawkEye 360; GPS; miniature CubeSats for education and research; and military/defense satellites.

Not visible in the next 10 days
Identifier
56210, 2023-054AJ
Orbit
SSO
Country
Flag of UnknownUnknown / TURK
Related business
Manufacturer
Plan-S
Mission
Operational Commercial Communications
Bus & Motor
CUBESAT 6U, Unknown motor
Mass
10 kg wet, ~10 kg dry
Launch date (UTC)
2023-04-15 (2 years ago)
Launch vehicle
FALCON 9
Launch site
Air Force Western Test Range (AFWTR)
Object type
Payload
Rocket body
Debris
Shape & HBR
Box + 2 Pan, 0.1 m
Radar Cross Section
0.080 m², Medium (>0.1 m² and < 1m²)

Expand to show TLE details & history
Last TLE update: 2 days ago

TLE from 2 days ago
0 CONNECTA T2.1
1 56210U 23054AJ  25239.89302701  .00139250  00000-0  75309-3 0  9996
2 56210  97.3079 151.9451 0004262  56.1684 303.9989 15.79698434133847
Epoch: 2025-08-27T21:25Z
TLE epoch observation values (Epoch: 2025-08-27T21:25:57.533Z)
Latitude
-0.00001°
Longitude
-145.90847°
Altitude
332.87 km
Speed
7.71 km/s
True Right ascension
10h 07m 46s
True Declination
0° 00' 00"
Sunlit
Object was in daylight at epoch
Visualization orbit readout
Latitude
Unknown
Longitude
Unknown
Altitude
Unknown
Speed
Unknown
Apparent Right ascension
Unknown
Apparent Declination
Unknown
Sunlit
N/A
Visualization observer readout
Local Sidereal Time
16:53:32
Azimuth
Unknown
Elevation
Unknown
Doppler factor
Unknown
Orbital elements
Apogee altitude
331.035 km
Perigee altitude
325.319 km
Semi-major axis
6,706.314 km
Eccentricity
0.00043
Inclination
97.3079°
RAAN
151.9451°
Arg. of periapsis
56.1684°
True anomaly
303.9584°
Mean anomaly
303.9989°
Eccentric anomaly
303.97865°
Mean motion
3.952 °/min
Orbital period
91.09 mins
BSTAR
0.00075309
Loading maneuver chart data...
Computing Atmospheric mass density...
Loading historical data...
Loading historical data...
Loading historical data...
Loading historical data...
Loading historical data...
Loading historical data...
Loading historical data...

Documentation

Showing up to 5 results
|